Weather History for Fargo, ND

Change the Weather History Date:

Saturday, October 6, 2012

  Actual Average Record
Temperature  
Mean Temperature 37 °F 50 °F  
Max Temperature 48 °F 61 °F 90 °F (1993)
Min Temperature 26 °F 39 °F 19 °F (1976)
Degree Days  
Heating Degree Days 28 15  
Month to date heating degree days 113 84  
Since 1 July heating degree days 343 354  
Cooling Degree Days 0 0  
Month to date cooling degree days 0 0  
Year to date cooling degree days 795 548  
Moisture  
Dew Point 26 °F    
Average Humidity 67    
Maximum Humidity 92    
Minimum Humidity 42    
Precipitation  
Precipitation 0.00 in 0.08 in 1.43 in (1982)
Month to date precipitation 0.38 0.50  
Year to date precipitation 11.72 19.13  
Snow  
Snow 0.00 in 0.00 in 0.40 in (1974)
Month to date snowfall 1.4 0.0  
Since 1 July snowfall 1.4 0.0  
Since 1 September snowfall 1.4 0.0  
Snow Depth 0.00 in    
Sea Level Pressure  
Sea Level Pressure 30.32 in    
Wind  
Wind Speed 8 mph (NW)    
Max Wind Speed 17 mph    
Max Gust Speed 21 mph    
Visibility 10 miles    
Events Snow    
T = Trace of Precipitation, MM = Missing Value Source: NWS Daily Summary

Daily Weather History Graph

Daily Weather History Graph

Search for Another Location

Airport:

Trip Planner

Search our weather history database for the weather conditions in past years. The results will help you decide how hot, cold, wet, or windy it might be!

Date:

Astronomy

Oct. 06, 2012 Rise Set
Actual Time 7:33 AM CDT 6:56 PM CDT
Civil Twilight 7:03 AM CDT 7:26 PM CDT
Nautical Twilight 6:27 AM CDT 8:01 PM CDT
Astronomical Twilight 5:52 AM CDT 8:36 PM CDT
Moon 10:55 PM CDT (10/6) 1:46 PM CDT (10/6)
Length of Visible Light 12h 23m
Length of Day
11h 22m
Waning Gibbous, 65% of the Moon is Illuminated
Oct 6
Waning Gibbous
Oct 8
Last Quarter
Oct 15
New
Oct 21
First Quarter
Oct 29
Full

Hourly Weather History & Observations

Time (CDT) Temp. Windchill Dew Point Humidity Pressure Visibility Wind Dir Wind Speed Gust Speed Precip Events Conditions
12:06 AM 33.8 °F 23.5 °F 30.2 °F 87% 30.28 in 8.0 mi NNW 16.1 mph - 0.00 in Snow Light Snow
12:16 AM 33.8 °F 24.3 °F 30.2 °F 87% 30.28 in 10.0 mi NNW 13.8 mph - 0.00 in   Overcast
12:53 AM 34.0 °F 24.6 °F 30.9 °F 89% 30.32 in 10.0 mi NNW 13.8 mph - 0.00 in   Overcast
1:53 AM 33.1 °F 24.4 °F 30.0 °F 89% 30.32 in 10.0 mi NNW 11.5 mph - N/A   Overcast
2:00 AM 33.8 °F 24.8 °F 30.2 °F 87% 30.29 in 10.0 mi NNW 12.7 mph - N/A   Overcast
2:53 AM 32.0 °F 23.0 °F 28.9 °F 88% 30.34 in 10.0 mi NNW 11.5 mph - N/A   Overcast
3:53 AM 32.0 °F 22.5 °F 28.9 °F 88% 30.34 in 10.0 mi NNW 12.7 mph - N/A   Overcast
4:53 AM 30.2 °F 21.9 °F 28.4 °F 93% 30.31 in 10.0 mi NNW 9.2 mph - N/A   Mostly Cloudy
5:11 AM 30.2 °F 21.9 °F 26.6 °F 86% 30.32 in 10.0 mi NNW 9.2 mph - N/A   Scattered Clouds
5:53 AM 28.0 °F 20.0 °F 26.1 °F 92% 30.36 in 10.0 mi NNW 8.1 mph - N/A   Clear
6:53 AM 27.0 °F 19.5 °F 23.0 °F 85% 30.38 in 10.0 mi NNW 6.9 mph - N/A   Clear
7:53 AM 27.0 °F 19.5 °F 24.1 °F 89% 30.38 in 10.0 mi NW 6.9 mph - N/A   Clear
8:53 AM 30.2 °F 22.6 °F 26.6 °F 86% 30.36 in 10.0 mi NW 8.1 mph - N/A   Clear
9:53 AM 34.0 °F 27.2 °F 28.9 °F 82% 30.41 in 10.0 mi NNW 8.1 mph - N/A   Clear
10:53 AM 39.0 °F 31.8 °F 30.0 °F 70% 30.41 in 10.0 mi NNW 11.5 mph - N/A   Clear
11:53 AM 41.0 °F 35.2 °F 27.0 °F 57% 30.41 in 10.0 mi NNW 9.2 mph - N/A   Clear
12:53 PM 43.0 °F 38.2 °F 27.0 °F 53% 30.39 in 10.0 mi NNW 8.1 mph - N/A   Partly Cloudy
1:53 PM 45.0 °F 41.8 °F 26.1 °F 48% 30.37 in 10.0 mi WNW 5.8 mph - N/A   Scattered Clouds
2:53 PM 46.9 °F - 25.0 °F 42% 30.34 in 10.0 mi NW 8.1 mph - N/A   Partly Cloudy
3:53 PM 46.9 °F - 24.1 °F 41% 30.32 in 10.0 mi West 9.2 mph - N/A   Mostly Cloudy
4:53 PM 46.9 °F - 24.1 °F 41% 30.30 in 10.0 mi WSW 4.6 mph - N/A   Partly Cloudy
5:53 PM 46.0 °F 41.4 °F 24.1 °F 42% 30.28 in 10.0 mi WNW 9.2 mph - N/A   Clear
6:53 PM 39.9 °F 35.8 °F 24.1 °F 53% 30.27 in 10.0 mi WSW 5.8 mph - N/A   Clear
7:53 PM 37.0 °F 32.4 °F 24.1 °F 59% 30.27 in 10.0 mi SW 5.8 mph - N/A   Clear
8:53 PM 36.0 °F 31.1 °F 23.0 °F 59% 30.26 in 10.0 mi South 5.8 mph - N/A   Clear
9:53 PM 33.1 °F 26.1 °F 24.1 °F 70% 30.24 in 10.0 mi South 8.1 mph - N/A   Clear
10:53 PM 30.9 °F 24.3 °F 21.9 °F 69% 30.23 in 10.0 mi South 6.9 mph - N/A   Clear
11:53 PM 30.2 °F 22.6 °F 21.2 °F 69% 30.17 in 10.0 mi South 8.1 mph - N/A   Clear